Location: Be Tobo
(6.6442°N, 10.6239°W)
Time: 00:52:59
(UTC+00:00)

ARIANE 3 DEB - Pass Details

Date: 18 September 2020
Orbit: 274 x 4823 km, 6.8° (Epoch: 20 October)

Event Time Altitude Azimuth Distance (km) Brightness Sun altitude
Rises 20:17:48 0° 261° (W) 2,517 7.5 -25.0°
Reaches altitude 10° 20:19:27 10° 253° (WSW) 1,883 6.4 -25.4°
Maximum altitude 20:23:33 46° 179° (S) 1,179 4.3 -26.4°
Enters shadow 20:24:17 44° 159° (SSE) 1,294 4.4 -26.6°
